[[{"header":{"parameterUnit":"m.s-1","parameterCategory":1,"la1":30.2991,"la2":30.254,"lo1":-89.0895,"lo2":-89.0444,"dy":0.0017,"dx":0.0017,"nx":28,"ny":28,"refTime":"2025-08-16T21:00:00:Z","depth":0,"parameterNumber":2,"parameterNumberName":"U-component_of_WINDS"},"data":[0,0,0,0,0,0,0,0,0,0,0,0,0,0,0,0,0,0,0,0,0,0,0,0,0,0,0,0,0,0,0,0,0,0,0,0,0,0,0,0,0,0,0,0,0,0,0,0,0,0,0,0,0,0,0,0,0,0,-1.0724,-1.0724,0,-1.0701,-1.07,-1.07,-1.0705,-1.0705,-1.0706,-1.0706,-1.0679,-1.0678,-1.0677,0,0,0,0,0,0,0,0,0,0,0,0,0,-1.0771,-1.077,-1.0724,-1.0724,-1.0724,-1.0701,-1.07,-1.07,-1.0705,-1.0705,-1.0706,-1.0706,-1.068,-1.0678,-1.0677,0,0,0,0,0,0,0,0,0,0,0,0,0,-1.075,-1.077,-1.0724,-1.0723,-1.0723,-1.0701,-1.07,-1.07,-1.0705,-1.0705,-1.0706,-1.0707,-1.068,-1.0678,-1.0677,-1.0653,0,0,-1.0671,-1.0671,0,0,0,0,0,0,0,0,-1.0751,-1.0748,-1.0724,-1.0723,-1.0723,-1.0707,-1.0707,-1.0684,-1.0705,-1.0712,-1.0706,-1.0707,-1.0688,-1.0685,-1.0679,-1.0652,-1.065,-1.0671,-1.067,-1.067,-1.0669,0,0,0,0,0,0,0,-1.0752,-1.0749,-1.0715,-1.0723,-1.0723,-1.0723,-1.0721,-1.0703,-1.0696,-1.0711,-1.0711,-1.0709,-1.0687,-1.0681,-1.0679,-1.065,-1.0671,-1.067,-1.0669,-1.0668,-1.0602,-1.0601,0,0,0,0,0,0,-1.0754,-1.075,-1.0716,-1.0714,-1.0739,-1.0722,-1.0719,-1.0711,-1.0696,-1.0695,-1.0708,-1.0709,-1.0683,-1.0681,-1.0678,-1.0649,-1.067,-1.0668,-1.0667,-1.0603,-1.0602,-1.0601,0,0,0,0,0,0,-1.0755,-1.0751,-1.0717,-1.0732,-1.0728,-1.0721,-1.0711,-1.071,-1.0704,-1.0694,-1.0693,-1.0703,-1.0684,-1.068,-1.0659,-1.0648,-1.0667,-1.0666,-1.0603,-1.0602,-1.0601,-1.0592,0,0,0,0,0,0,-1.0757,-1.0752,-1.0743,-1.0732,-1.0727,-1.0699,-1.071,-1.0709,-1.0701,-1.0702,-1.0689,-1.0687,-1.0684,-1.0662,-1.0658,-1.0646,-1.0664,-1.0604,-1.0603,-1.0602,-1.0593,-1.059,-1.0588,0,0,0,0,0,-1.0758,-1.0741,-1.0743,-1.0738,-1.0716,-1.0699,-1.0696,-1.0693,-1.07,-1.0691,-1.0685,-1.0688,-1.065,-1.066,-1.0655,-1.0643,-1.0605,-1.0603,-1.0602,-1.0594,-1.0591,-1.0588,0,0,0,0,0,0,-1.0749,-1.0739,-1.0741,-1.0719,-1.071,-1.0699,-1.0688,-1.069,-1.0678,-1.0679,-1.0676,-1.0672,-1.0651,-1.0645,-1.0656,-1.0619,-1.0629,-1.0626,-1.0624,-1.0621,-1.0619,-1.0621,-1.0663,0,0,0,0,0,-1.0745,-1.0733,-1.0724,-1.0705,-1.0701,-1.0695,-1.0687,-1.0687,-1.0676,-1.0672,-1.0664,-1.0653,-1.0639,-1.063,-1.0616,-1.0592,-1.0589,-1.0582,-1.0579,-1.0577,-1.0575,-1.0562,-1.0559,-1.0595,-1.0595,-1.0595,0,0,-1.0736,-1.0728,-1.072,-1.0703,-1.0696,-1.0682,-1.0692,-1.0677,-1.0666,-1.0669,-1.065,-1.0643,-1.0631,-1.0609,-1.0598,-1.0603,-1.0564,-1.0575,-1.0574,-1.0572,-1.056,-1.0557,-1.0553,-1.0594,-1.0594,-1.0595,0,0,-1.0712,-1.0705,-1.0689,-1.0682,-1.0671,-1.0667,-1.0664,-1.0653,-1.0649,-1.063,-1.0632,-1.0619,-1.0595,-1.0586,-1.0578,-1.0552,-1.0553,-1.0547,-1.0535,-1.0522,-1.0519,-1.0517,-1.0507,-1.0504,-1.0545,-1.0545,-1.0545,0,-1.0701,-1.0681,-1.068,-1.0666,-1.0658,-1.0661,-1.0645,-1.0637,-1.0622,-1.0616,-1.0622,-1.0592,-1.0583,-1.0559,-1.0553,-1.0546,-1.0542,-1.0549,-1.052,-1.0517,-1.0515,-1.0506,-1.0502,-1.0544,-1.0544,-1.0544,-1.0544,0,-1.0669,-1.0655,-1.0644,-1.063,-1.0621,-1.0606,-1.0602,-1.0593,-1.0593,-1.0589,-1.0568,-1.0559,-1.0544,-1.0538,-1.0537,-1.0513,-1.0517,-1.0521,-1.053,-1.0511,-1.0502,-1.0499,-1.0543,-1.0543,-1.0544,-1.0544,0,0,-1.0638,-1.0625,-1.0621,-1.0615,-1.0604,-1.0593,-1.0577,-1.0563,-1.0556,-1.0545,-1.0532,-1.0511,-1.0515,-1.0507,-1.0505,-1.0494,-1.0474,-1.05,-1.0499,-1.0496,-1.0448,-1.0445,-1.0441,-1.0475,-1.0474,-1.0474,-1.0449,0,-1.0614,-1.0587,-1.0586,-1.0562,-1.055,-1.0552,-1.0539,-1.053,-1.0526,-1.0514,-1.0508,-1.0494,-1.0501,-1.0496,-1.0485,-1.0479,-1.0464,-1.048,-1.0462,-1.0462,-1.0466,-1.0436,-1.0433,-1.041,-1.0445,-1.0445,-1.0444,0,-1.0581,-1.0571,-1.0546,-1.0537,-1.0531,-1.0519,-1.0507,-1.0496,-1.0485,-1.0483,-1.0474,-1.0474,-1.0457,-1.0467,-1.0444,-1.0455,-1.0448,-1.0443,-1.0442,-1.0441,-1.0452,-1.0434,-1.0402,-1.0399,-1.0439,-1.044,-1.044,0,-1.0562,-1.0542,-1.0524,-1.0519,-1.0508,-1.0499,-1.0494,-1.0484,-1.0476,-1.0465,-1.046,-1.0446,-1.0439,-1.0428,-1.0424,-1.0432,-1.0401,-1.0411,-1.0399,-1.0399,-1.0392,-1.0393,-1.0359,-1.0387,-1.0387,-1.0387,-1.0387,0,-1.0534,-1.0519,-1.0516,-1.0505,-1.0488,-1.0486,-1.0469,-1.0464,-1.0455,-1.0443,-1.0445,-1.0433,-1.0429,-1.0416,-1.0413,-1.0395,-1.0391,-1.0388,-1.0388,-1.0388,-1.0389,-1.0384,-1.0385,-1.0386,-1.0386,-1.0387,-1.0387,0,-1.051,-1.0507,-1.0488,-1.048,-1.0477,-1.0465,-1.0457,-1.0446,-1.0442,-1.0427,-1.0423,-1.0417,-1.0402,-1.0398,-1.0379,-1.0377,-1.0356,-1.0357,-1.036,-1.036,-1.0348,-1.035,-1.031,-1.0305,-1.0336,-1.0336,-1.0335,0,-1.0493,-1.0481,-1.0472,-1.0464,-1.0459,-1.0447,-1.0439,-1.0437,-1.0428,-1.0416,-1.0407,-1.0393,-1.0382,-1.0358,-1.0351,-1.0338,-1.0338,-1.0325,-1.0336,-1.0337,-1.0338,-1.0339,-1.0338,-1.0323,-1.0323,-1.0323,-1.0322,0,-1.0463,-1.0462,-1.0451,-1.044,-1.0431,-1.0422,-1.0413,-1.0406,-1.0403,-1.0393,-1.0379,-1.037,-1.0353,-1.0339,-1.0325,-1.0318,-1.032,-1.0319,-1.0316,-1.0316,-1.0319,-1.0318,-1.0355,-1.032,-1.032,-1.032,-1.0321,-1.0321,-1.0442,-1.0432,-1.0424,-1.0412,-1.0405,-1.0397,-1.0387,-1.0382,-1.0371,-1.0357,-1.0356,-1.0341,-1.0331,-1.0313,-1.0306,-1.0293,-1.0297,-1.0291,-1.029,-1.0289,-1.0289,-1.0321,-1.029,-1.029,-1.0291,-1.0291,-1.0291,0,-1.0412,-1.0408,-1.0397,-1.0385,-1.0375,-1.0378,-1.0369,-1.036,-1.0347,-1.0338,-1.0327,-1.0311,-1.0298,-1.029,-1.0276,-1.0268,-1.0268,-1.0264,-1.0265,-1.0264,-1.0286,-1.029,-1.0264,-1.0264,-1.0264,-1.0264,-1.0264,-1.0264,-1.0396,-1.038,-1.0378,-1.0358,-1.0353,-1.0339,-1.0334,-1.0326,-1.0319,-1.0301,-1.029,-1.0286,-1.0277,-1.0263,-1.0251,-1.0249,-1.0244,-1.024,-1.0238,-1.0259,-1.0262,-1.0264,-1.0269,-1.0239,-1.0239,-1.0217,-1.0217,-1.0217]},{"header":{"parameterUnit":"m.s-1","parameterCategory":1,"la1":30.2991,"la2":30.254,"lo1":-89.0895,"lo2":-89.0444,"dy":0.0017,"dx":0.0017,"nx":28,"ny":28,"refTime":"2025-08-16T21:00:00:Z","depth":0,"parameterNumber":3,"parameterNumberName":"V-component_of_WINDS"},"data":[0,0,0,0,0,0,0,0,0,0,0,0,0,0,0,0,0,0,0,0,0,0,0,0,0,0,0,0,0,0,0,0,0,0,0,0,0,0,0,0,0,0,0,0,0,0,0,0,0,0,0,0,0,0,0,0,0,0,-1.6316,-1.6315,0,-1.6296,-1.6296,-1.6295,-1.6249,-1.6248,-1.6247,-1.6246,-1.6227,-1.6227,-1.6228,0,0,0,0,0,0,0,0,0,0,0,0,0,-1.6315,-1.6315,-1.6316,-1.6315,-1.6315,-1.6296,-1.6296,-1.6295,-1.6249,-1.6248,-1.6246,-1.6245,-1.6227,-1.6227,-1.6228,0,0,0,0,0,0,0,0,0,0,0,0,0,-1.6307,-1.6315,-1.6316,-1.6289,-1.6287,-1.6296,-1.6296,-1.6295,-1.6249,-1.6247,-1.6246,-1.6245,-1.6227,-1.6227,-1.6228,-1.6261,0,0,-1.623,-1.623,0,0,0,0,0,0,0,0,-1.6308,-1.6307,-1.6294,-1.6291,-1.6288,-1.6273,-1.6288,-1.6284,-1.6249,-1.6263,-1.6246,-1.6244,-1.6244,-1.6243,-1.6242,-1.626,-1.6259,-1.623,-1.623,-1.623,-1.623,0,0,0,0,0,0,0,-1.6308,-1.6308,-1.6308,-1.6293,-1.629,-1.6279,-1.6277,-1.6287,-1.6262,-1.6262,-1.6259,-1.6257,-1.6242,-1.6242,-1.6241,-1.6259,-1.623,-1.623,-1.6231,-1.6231,-1.6305,-1.6307,0,0,0,0,0,0,-1.6312,-1.6308,-1.6308,-1.6307,-1.6295,-1.6281,-1.6277,-1.628,-1.6262,-1.6258,-1.6258,-1.6255,-1.6241,-1.6241,-1.6241,-1.628,-1.623,-1.6231,-1.6231,-1.6303,-1.6305,-1.6307,0,0,0,0,0,0,-1.6312,-1.6313,-1.6309,-1.6307,-1.6306,-1.6282,-1.6285,-1.628,-1.628,-1.6259,-1.6254,-1.6263,-1.624,-1.624,-1.6257,-1.6278,-1.6231,-1.6232,-1.6302,-1.6304,-1.6306,-1.6358,0,0,0,0,0,0,-1.6312,-1.6313,-1.6325,-1.6307,-1.6306,-1.6325,-1.6286,-1.6281,-1.6281,-1.6276,-1.6262,-1.6258,-1.6239,-1.6256,-1.6257,-1.6278,-1.6232,-1.63,-1.6303,-1.6306,-1.6354,-1.6362,-1.6368,0,0,0,0,0,-1.6313,-1.634,-1.6326,-1.6326,-1.632,-1.6326,-1.6326,-1.6303,-1.6283,-1.6295,-1.6282,-1.6258,-1.6276,-1.6258,-1.6259,-1.6281,-1.6298,-1.6302,-1.6305,-1.6351,-1.636,-1.6368,0,0,0,0,0,0,-1.6361,-1.6337,-1.6321,-1.6344,-1.6337,-1.6319,-1.6333,-1.6313,-1.6313,-1.6309,-1.6281,-1.6278,-1.6299,-1.6291,-1.6272,-1.6313,-1.6283,-1.6287,-1.6318,-1.6326,-1.6333,-1.6335,-1.6233,0,0,0,0,0,-1.6374,-1.638,-1.636,-1.6382,-1.6379,-1.6357,-1.6359,-1.6342,-1.6335,-1.6332,-1.632,-1.6314,-1.6318,-1.6321,-1.6324,-1.6352,-1.6349,-1.6368,-1.6375,-1.6381,-1.6385,-1.6401,-1.641,-1.6319,-1.6319,-1.6319,0,0,-1.6401,-1.6389,-1.6395,-1.6391,-1.6384,-1.6393,-1.6355,-1.6365,-1.6371,-1.6333,-1.6349,-1.634,-1.6332,-1.6355,-1.6365,-1.6349,-1.6409,-1.6385,-1.639,-1.6391,-1.6406,-1.6414,-1.6422,-1.6321,-1.6321,-1.6321,0,0,-1.6456,-1.6447,-1.6465,-1.6459,-1.6449,-1.6434,-1.6439,-1.6423,-1.6416,-1.6431,-1.6403,-1.641,-1.6417,-1.6413,-1.6412,-1.6466,-1.6445,-1.6467,-1.6505,-1.6521,-1.6528,-1.6534,-1.6555,-1.6563,-1.6471,-1.6472,-1.6472,0,-1.6492,-1.6502,-1.6477,-1.6489,-1.6489,-1.6454,-1.6473,-1.6469,-1.6461,-1.6462,-1.6444,-1.6454,-1.6445,-1.6468,-1.6482,-1.6481,-1.6486,-1.647,-1.6529,-1.6535,-1.6541,-1.656,-1.6568,-1.6474,-1.6474,-1.6474,-1.6474,0,-1.6547,-1.6556,-1.6571,-1.6565,-1.6566,-1.6581,-1.6559,-1.6563,-1.6546,-1.6534,-1.655,-1.6539,-1.654,-1.6544,-1.6527,-1.6564,-1.6555,-1.6534,-1.6504,-1.6553,-1.6571,-1.6578,-1.6479,-1.6478,-1.6477,-1.6476,0,0,-1.6632,-1.6611,-1.6618,-1.6615,-1.6602,-1.6608,-1.6623,-1.6623,-1.6628,-1.6623,-1.6636,-1.6643,-1.6624,-1.6622,-1.6605,-1.6619,-1.6665,-1.6596,-1.6595,-1.6611,-1.6707,-1.6725,-1.6734,-1.665,-1.6651,-1.6652,-1.6708,0,-1.6685,-1.6708,-1.6686,-1.6714,-1.6722,-1.669,-1.6703,-1.6697,-1.6685,-1.6691,-1.6678,-1.6685,-1.6657,-1.6657,-1.6669,-1.6657,-1.6684,-1.6652,-1.6663,-1.6663,-1.6668,-1.6743,-1.6761,-1.6814,-1.6715,-1.6716,-1.6717,0,-1.6749,-1.6748,-1.6777,-1.6764,-1.6766,-1.6778,-1.6778,-1.6783,-1.6776,-1.6767,-1.6766,-1.6745,-1.6759,-1.6728,-1.6748,-1.6727,-1.673,-1.6725,-1.6726,-1.6728,-1.6694,-1.6748,-1.6831,-1.684,-1.6728,-1.6727,-1.6726,0,-1.6811,-1.6816,-1.6835,-1.6833,-1.6817,-1.6827,-1.6821,-1.6812,-1.6814,-1.6813,-1.6815,-1.6816,-1.6817,-1.6819,-1.6799,-1.6778,-1.6822,-1.6789,-1.6816,-1.6817,-1.6828,-1.6828,-1.6914,-1.6827,-1.6827,-1.6827,-1.6827,0,-1.6873,-1.6892,-1.6862,-1.6874,-1.6895,-1.687,-1.6892,-1.6882,-1.6875,-1.6885,-1.6857,-1.6867,-1.6839,-1.6847,-1.6831,-1.6851,-1.6851,-1.6845,-1.6841,-1.6849,-1.685,-1.6851,-1.6848,-1.6829,-1.6828,-1.6828,-1.6828,0,-1.6945,-1.6926,-1.6944,-1.6928,-1.6924,-1.6941,-1.6927,-1.6938,-1.6924,-1.6938,-1.6939,-1.6919,-1.6926,-1.6906,-1.691,-1.69,-1.6929,-1.6918,-1.6932,-1.6929,-1.6958,-1.6956,-1.7049,-1.7061,-1.6965,-1.6966,-1.6967,0,-1.6987,-1.7001,-1.6987,-1.6991,-1.6987,-1.6994,-1.6997,-1.6972,-1.6976,-1.6969,-1.6981,-1.6986,-1.6989,-1.7002,-1.6988,-1.6992,-1.6982,-1.7014,-1.6982,-1.699,-1.6984,-1.6984,-1.6986,-1.7021,-1.7022,-1.7023,-1.7024,0,-1.7064,-1.7054,-1.7058,-1.7059,-1.7062,-1.7062,-1.706,-1.7065,-1.7039,-1.7045,-1.7052,-1.7054,-1.7059,-1.7065,-1.7065,-1.7059,-1.7038,-1.7034,-1.7041,-1.705,-1.7058,-1.7055,-1.6952,-1.7032,-1.7032,-1.7031,-1.7031,-1.703,-1.7123,-1.7135,-1.7127,-1.7133,-1.7129,-1.7128,-1.7137,-1.7126,-1.7131,-1.7133,-1.7118,-1.7129,-1.7122,-1.7121,-1.7117,-1.7126,-1.7111,-1.7121,-1.7123,-1.7126,-1.7132,-1.7055,-1.7126,-1.7125,-1.7125,-1.7125,-1.7125,0,-1.72,-1.7194,-1.7199,-1.7197,-1.7202,-1.7181,-1.7178,-1.7184,-1.7194,-1.7189,-1.7193,-1.7202,-1.7208,-1.7194,-1.7198,-1.7208,-1.7198,-1.721,-1.721,-1.7209,-1.7144,-1.7139,-1.7217,-1.7217,-1.7217,-1.7217,-1.7217,-1.7217,-1.7241,-1.7261,-1.725,-1.7267,-1.7261,-1.7271,-1.7271,-1.7271,-1.7267,-1.7279,-1.7283,-1.7274,-1.7267,-1.727,-1.7275,-1.727,-1.7274,-1.7289,-1.7282,-1.7222,-1.7213,-1.7205,-1.72,-1.729,-1.729,-1.7347,-1.7347,-1.7348]}]]